PST,Max TemperatureF,Mean TemperatureF,Min TemperatureF,Max Dew PointF,MeanDew PointF,Min DewpointF,Max Humidity, Mean Humidity, Min Humidity, Max Sea Level PressureIn, Mean Sea Level PressureIn, Min Sea Level PressureIn, Max VisibilityMiles, Mean VisibilityMiles, Min VisibilityMiles, Max Wind SpeedMPH, Mean Wind SpeedMPH, Max Gust SpeedMPH,PrecipitationIn, CloudCover, Events, WindDirDegrees
2012-12-1,50,47,44,48,44,41,97,85,71,29.54,29.43,29.27,10,10,7,23,16,37,0.11,6,Rain,139
2012-12-2,50,47,43,45,43,40,96,87,71,29.72,29.41,29.15,10,10,7,16,11,26,0.12,7,Rain,151
2012-12-3,51,46,43,45,42,39,93,84,68,29.98,29.83,29.56,10,10,4,25,8,36,0.16,7,Rain,128
2012-12-4,53,47,41,45,41,36,93,81,57,29.79,29.62,29.43,10,10,6,26,15,37,0.05,6,Rain,200
2012-12-5,46,42,37,40,37,34,93,80,68,30.17,30.11,29.83,10,10,9,14,8,26,0.00,6,Rain,156
2012-12-6,44,40,37,41,39,36,97,90,86,30.15,30.08,30.04,10,10,5,13,4,22,0.02,7,Rain,177
2012-12-7,44,39,34,41,37,30,93,85,71,30.14,30.02,29.94,10,9,5,14,7,25,0.11,5,Rain,203
2012-12-8,43,38,34,35,33,30,93,82,65,30.36,30.26,30.14,10,10,10,7,1,,0.00,2,,316
2012-12-9,39,38,37,39,37,34,97,90,79,30.39,30.34,30.30,10,6,2,9,4,,0.00,8,Rain,62
2012-12-10,46,42,37,43,40,37,100,91,81,30.43,30.31,30.06,10,10,10,15,2,20,0.00,7,,171
2012-12-11,46,44,42,43,41,39,100,90,81,30.04,29.69,29.54,10,10,4,16,7,22,0.02,7,Rain,125
2012-12-12,44,42,39,43,38,36,100,86,76,30.04,29.81,29.61,10,10,4,8,3,,0.03,7,Rain,339
2012-12-13,44,42,39,39,38,36,93,87,79,30.05,29.94,29.78,10,10,8,16,5,,0.00,8,Rain,115
2012-12-14,43,38,32,40,36,31,100,86,70,29.94,29.85,29.78,10,9,5,10,3,,0.06,6,Rain,1
2012-12-15,42,40,39,37,35,32,93,84,70,29.87,29.63,29.49,10,10,5,30,15,47,0.09,7,Rain,131
2012-12-16,44,42,39,41,37,34,93,85,76,29.71,29.43,28.93,10,10,7,23,11,39,0.03,8,Rain,125
2012-12-17,45,39,33,42,35,30,100,86,70,29.85,29.34,28.92,10,8,2,18,8,30,0.16,7,Rain-Snow,215
2012-12-18,41,37,33,36,33,32,96,86,73,29.95,29.90,29.85,10,9,2,21,6,33,0.14,8,Rain-Snow,164
2012-12-19,42,40,37,38,36,33,89,83,79,29.86,29.60,29.51,10,10,8,34,26,52,0.01,8,Rain,133
2012-12-20,43,41,39,41,38,35,93,86,76,29.80,29.63,29.48,10,9,3,23,12,30,0.18,7,Rain,137
2012-12-21,46,42,37,38,35,32,89,77,67,29.79,29.73,29.69,10,10,10,20,11,28,0.00,4,,91
2012-12-22,46,42,39,39,37,34,86,77,71,29.67,29.56,29.47,10,10,10,26,11,38,0.00,6,Rain,117
2012-12-23,45,43,41,38,37,35,89,78,71,29.82,29.70,29.63,10,10,10,23,15,33,0.00,8,Rain,106
2012-12-24,44,40,37,40,38,36,100,90,81,30.16,30.08,29.85,10,10,2,16,3,21,0.09,7,Rain,94
2012-12-25,43,41,39,37,35,31,93,78,65,30.01,29.73,29.64,10,10,4,22,12,31,0.11,8,Rain,87
2012-12-26,44,42,41,41,38,35,96,83,74,29.93,29.78,29.69,10,9,5,14,9,20,0.00,8,Rain,71
2012-12-27,46,42,39,43,39,37,100,91,76,30.16,30.08,29.93,10,10,6,8,3,,0.00,7,Rain,143
2012-12-28,45,42,39,39,37,36,93,82,71,30.17,30.14,30.12,10,10,10,10,6,,0.00,8,Rain,72
2012-12-29,41,38,35,39,38,34,100,95,87,30.26,30.19,30.16,10,8,2,6,1,,0.02,8,Rain,78
2012-12-30,39,34,30,36,34,29,100,93,86,30.34,30.30,30.25,10,8,2,5,0,,0.00,5,,66
2012-12-31,37,35,33,36,34,32,100,94,89,30.48,30.34,30.26,10,10,8,6,1,,0.00,7,Rain,341